HULIANWANG DIGUI-71 (65231 NORAD) Tracking and Keplerian Element Data

This shows tracking and keplerian element data for the satellite.

Feedback or suggestion? Click here.




ElementValue
Catalog65231
NameHULIANWANG DIGUI-71
Epoch Orbit1662
Epoch Day354.21004861
Epoch Year2025
RAAN73.965
Inclination86.4977
Eccentricity0.000152
Argument of Perigee112.1708
Mean Anonmoly247.9588
Mean Motion13.24413949
Decay Rate5.2E-07
L11 65231U 25178D 25354.21004861 .00000052 00000+0 86109-4 0 9995
L22 65231 86.4977 73.9650 0001520 112.1708 247.9588 13.24413949 16626



Live tracking and technical data element details for HULIANWANG DIGUI-71 (NORAD 65231). HULIANWANG DIGUI-71 can be tracked NOW for your location showing map with azimuth and elevation plus other details from your city location.







IsCatalogInMostPopularTable: catalog: 65231, numindb: 4
Update: records affected: 1



GetName: 65231 HULIANWANG DIGUI-71

Hit Count: updated at: Mon, 20 Apr 2026 09:07:57 GMT